Stations météo

réclame
Mon MeteoGroup
Niort, France (7330): Température de l'air & dewpoint: 15.02.2018 16:00:00 - 21.02.2018 16:00:00 (CET)Niort, France (7330): Température de l'air 5cm: 15.02.2018 16:00:00 - 21.02.2018 16:00:00 (CET)Niort, France (7330): Température de l'air -20cm & Température de l'air -100cm: 15.02.2018 16:00:00 - 21.02.2018 16:00:00 (CET)Niort, France (7330): Vitesse du vent & gusts: 15.02.2018 16:00:00 - 21.02.2018 16:00:00 (CET)Niort, France (7330): Direction du vent: 15.02.2018 16:00:00 - 21.02.2018 16:00:00 (CET)Niort, France (7330): reduced air pressure: 15.02.2018 16:00:00 - 21.02.2018 16:00:00 (CET)Niort, France (7330): visibility: 15.02.2018 16:00:00 - 21.02.2018 16:00:00 (CET)Niort, France (7330): Ensoleillement: 15.02.2018 16:00:00 - 21.02.2018 16:00:00 (CET)Niort, France (7330): Quantités de précipitations: 15.02.2018 16:00:00 - 21.02.2018 16:00:00 (CET)
Date & Time tt [°C] td [°C] tt 5cm [°C] tt -20cm [°C] tt -100cm [°C] ff [km/h] ff [knt] fx [km/h] fx [knt] dd ppp [hPa] vv [km] sd [min] rr [mm]
21.02.2018 16:00:00 6,6 -2,3 9,0 8,0 8,5 30 16 49 26 NNE 1018,6 13 60 0,0
21.02.2018 15:00:00 6,9 -1,0 8,2 8,0 8,5 24 13 45 24 NE 1019,2 11 56 0,0
21.02.2018 14:00:00 6,7 -0,8 7,1 8,0 8,5 24 13 40 21 NE 1019,9 9 51 0,0
21.02.2018 13:00:00 6,1 0,2 7,6 8,0 8,5 25 14 41 22 NE 1020,6 7 58 0,0
21.02.2018 12:00:00 4,5 -0,1 5,8 8,0 8,5 24 13 35 19 NE 1021,2 6 39 0,0
21.02.2018 11:00:00 4,3 0,6 4,7 8,0 8,5 20 11 33 18 NNE 1021,2 6 40 0,0
21.02.2018 10:00:00 4,0 0,9 2,9 8,0 8,5 20 11 34 18 NE 1021,3 6 42 0,0
21.02.2018 09:00:00 3,0 0,6 1,6 8,0 8,5 18 10 26 14 NNE 1020,8 6 22 0,0
21.02.2018 08:00:00 2,5 0,2 1,5 8,0 8,5 16 9 24 13 NNE 1020,5 6 0 0,0
21.02.2018 07:00:00 2,8 0,2 1,8 8,0 8,5 14 8 29 15 NNE 1019,9 7 0 0,0
21.02.2018 06:00:00 3,5 1,0 2,7 8,0 8,5 17 9 33 18 NNE 1019,4 8 0 0,0
21.02.2018 05:00:00 4,1 1,8 3,3 7,9 8,4 18 10 29 15 NNE 1019,1 9 0 0,0
21.02.2018 04:00:00 4,5 2,0 3,7 8,0 8,5 14 8 32 17 NNE 1019,2 13 0 0,0
21.02.2018 03:00:00 5,2 2,4 4,6 8,0 8,5 18 10 38 21 NNE 1019,5 18 0 0,0
21.02.2018 02:00:00 5,6 2,8 4,9 7,9 8,4 24 13 44 24 NE 1018,9 20 0 0,0
21.02.2018 01:00:00 6,7 2,6 5,9 7,9 8,4 29 16 49 27 N 1018,8 20 0 0,0
21.02.2018 00:00:00 7,2 2,5 6,2 7,9 8,4 22 12 42 23 N 1018,6 20 0 0,0
20.02.2018 23:00:00 7,5 3,0 6,5 7,8 8,4 29 16 45 25 N 1018,3 20 0 0,0
20.02.2018 22:00:00 8,2 4,4 7,2 7,8 8,4 26 14 47 26 N 1018,5 20 0 0,0
20.02.2018 21:00:00 9,3 6,2 8,2 7,8 8,4 16 9 35 19 NNW 1018,2 19 0 0,0
20.02.2018 20:00:00 10,0 6,9 9,1 7,8 8,4 14 8 27 15 NNW 1018,2 20 0 0,0
20.02.2018 19:00:00 10,5 6,4 9,5 7,8 8,4 16 9 34 19 N 1018,1 20 0 0,0
20.02.2018 18:00:00 11,4 6,9 10,8 7,8 8,4 16 8 33 18 NNW 1017,8 20 14 0,0
20.02.2018 17:00:00 11,6 6,7 11,5 7,8 8,4 21 12 42 23 N 1017,8 20 2 0,0
20.02.2018 16:00:00 12,4 6,9 12,1 7,8 8,4 23 12 39 21 N 1018,0 20 11 0,0
20.02.2018 15:00:00 11,9 7,0 11,4 7,8 8,4 19 10 41 22 N 1018,1 20 0 0,0
20.02.2018 14:00:00 11,9 8,0 12,0 7,8 8,4 22 12 40 21 NNW 1018,2 20 5 0,0
20.02.2018 13:00:00 11,0 7,5 10,7 7,7 8,4 16 9 35 19 NNW 1018,4 20 0 0,0
20.02.2018 12:00:00 10,7 7,4 10,7 7,8 8,4 21 11 34 19 N 1018,3 20 0 0,0
20.02.2018 11:00:00 10,9 7,8 10,3 7,7 8,4 15 8 29 16 NNW 1018,1 20 0 0,0
20.02.2018 10:00:00 10,5 7,7 9,6 7,7 8,4 16 9 29 15 NNW 1017,9 19 1 0,0
20.02.2018 09:00:00 9,9 7,8 8,9 7,7 8,4 12 7 24 13 NNW 1017,8 19 0 0,0
20.02.2018 08:00:00 9,4 7,8 8,6 7,7 8,4 13 7 28 15 NW 1017,4 13 0 0,0
20.02.2018 07:00:00 9,4 8,0 8,7 7,7 8,4 13 7 24 13 NW 1016,8 13 0 0,0
20.02.2018 06:00:00 9,4 8,3 8,8 7,7 8,4 13 7 23 13 NW 1017,0 10 0 0,2
20.02.2018 05:00:00 9,5 8,6 8,9 7,6 8,4 14 7 24 13 NW 1017,1 9 0 1,0
20.02.2018 04:00:00 9,7 8,6 9,1 7,6 8,4 14 7 23 12 NW 1017,2 13 0 0,0
20.02.2018 03:00:00 9,6 8,5 9,1 7,7 8,4 10 6 21 11 WNW 1017,3 12 0 0,0
20.02.2018 02:00:00 9,9 8,7 9,3 7,6 8,4 13 7 27 15 NW 1017,4 14 0 0,0
20.02.2018 01:00:00 10,1 9,0 9,4 7,6 8,4 14 7 24 13 NW 1017,5 15 0 0,0
20.02.2018 00:00:00 9,8 9,2 9,2 7,6 8,4 9 5 17 9 WNW 1017,6 8 0 0,0
19.02.2018 23:00:00 9,6 9,1 8,9 7,6 8,4 11 6 18 10 WNW 1017,7 2,6 0 0,0
19.02.2018 22:00:00 9,2 8,7 8,6 7,6 8,4 8 4 13 7 W 1017,9 1,1 0 0,0
19.02.2018 21:00:00 8,7 8,2 8,5 7,6 8,4 5 3 9 5 WSW 1018,3 0,5 0 0,0
19.02.2018 20:00:00 8,7 8,1 8,4 7,6 8,4 4 2 9 5 WSW 1018,4 0,8 0 0,0
19.02.2018 19:00:00 8,8 8,0 8,4 7,6 8,4 6 3 12 6 W 1018,5 5 0 0,0
19.02.2018 18:00:00 8,8 8,0 8,6 7,6 8,4 9 5 18 10 WNW 1018,5 9 0 0,0
19.02.2018 17:00:00 8,9 7,7 8,8 7,5 8,3 13 7 18 10 WNW 1018,5 8 0 0,0
19.02.2018 16:00:00 9,0 7,6 9,2 7,6 8,4 6 3 13 7 W 1018,8 16 0 0,0
19.02.2018 15:00:00 8,5 7,0 9,3 7,6 8,4 8 4 13 7 WNW 1019,1 20 0 0,0
19.02.2018 14:00:00 8,7 6,5 9,7 7,6 8,3 8 5 12 6 W 1019,5 20 0 0,0
19.02.2018 13:00:00 8,6 5,7 10,4 7,6 8,3 4 2 11 6 SW 1019,8 20 0 0,0
19.02.2018 12:00:00 7,8 5,8 9,5 7,6 8,3 4 2 9 5 SSE 1020,1 20 0 0,0
19.02.2018 11:00:00 7,0 5,5 7,6 7,6 8,3 5 3 9 5 SSE 1020,1 20 11 0,0
19.02.2018 10:00:00 5,7 4,8 5,6 7,6 8,3 6 3 10 6 SE 1020,3 18 0 0,0
19.02.2018 09:00:00 5,1 4,4 5,0 7,6 8,3 6 3 13 7 SE 1020,3 16 0 0,0
19.02.2018 08:00:00 5,1 4,4 4,8 7,6 8,3 5 3 9 5 SE 1020,2 14 0 0,0
19.02.2018 07:00:00 5,2 4,5 4,9 7,6 8,3 3 1 9 5 ESE 1020,1 3,6 0 0,2
19.02.2018 06:00:00 5,1 4,2 4,7 7,6 8,3 5 3 9 5 ESE 1020,0 13 0 0,0
19.02.2018 05:00:00 5,1 4,4 4,0 7,6 8,3 7 4 10 5 ESE 1020,0 20 0 0,0
19.02.2018 04:00:00 4,6 3,9 3,8 7,6 8,3 5 3 9 5 E 1020,2 19 0 0,0
19.02.2018 03:00:00 4,1 3,4 2,4 7,6 8,3 6 3 9 5 E 1020,5 15 0 0,0
19.02.2018 02:00:00 4,4 3,5 2,9 7,6 8,3 4 2 8 5 E 1020,7 20 0 0,0
19.02.2018 01:00:00 5,0 4,1 2,3 7,6 8,3 7 4 10 5 ESE 1021,0 20 0 0,0
19.02.2018 00:00:00 5,2 4,0 3,3 7,6 8,3 5 3 10 5 ESE 1021,3 20 0 0,0
18.02.2018 23:00:00 5,3 4,4 3,1 7,6 8,3 6 3 11 6 ESE 1021,7 20 0 0,0
18.02.2018 22:00:00 5,0 4,1 2,0 7,6 8,3 7 4 9 5 E 1021,9 8 0 0,0
18.02.2018 21:00:00 6,3 5,1 3,7 7,6 8,3 5 3 9 5 ESE 1022,1 20 0 0,0
18.02.2018 20:00:00 7,4 5,9 6,8 7,6 8,2 6 4 10 6 ESE 1022,0 20 0 0,0
18.02.2018 19:00:00 7,7 6,0 7,2 7,6 8,3 8 4 13 7 SE 1022,1 20 0 0,0
18.02.2018 18:00:00 8,0 6,0 7,9 7,6 8,3 10 5 18 10 SE 1022,0 20 0 0,0
18.02.2018 17:00:00 8,1 6,1 8,7 7,6 8,2 13 7 20 11 SE 1022,1 20 0 0,0
18.02.2018 16:00:00 8,1 5,7 8,9 7,6 8,2 17 9 27 15 SSE 1022,1 20 0 0,0
18.02.2018 15:00:00 8,1 5,7 8,1 7,6 8,2 20 11 30 16 SE 1022,2 20 0 0,0
18.02.2018 14:00:00 7,6 5,4 7,8 7,6 8,2 23 12 35 19 SSE 1022,8 20 0 0,0
18.02.2018 13:00:00 7,5 5,3 7,5 7,6 8,2 24 13 37 20 SE 1023,4 20 8 0,0
18.02.2018 12:00:00 6,5 5,1 6,4 7,6 8,2 27 15 37 20 SE 1023,8 20 0 0,0
18.02.2018 11:00:00 5,8 4,4 5,5 7,6 8,2 19 10 31 17 ESE 1024,5 19 0 0,2
18.02.2018 10:00:00 5,5 4,3 5,1 7,6 8,2 19 11 28 15 ESE 1024,6 20 0 0,4
18.02.2018 09:00:00 5,1 4,5 4,5 7,6 8,2 16 9 26 14 ESE 1024,8 18 0 0,4
18.02.2018 08:00:00 4,7 4,4 4,3 7,6 8,2 12 7 19 10 SE 1025,2 6 0 0,8
18.02.2018 07:00:00 4,4 4,1 3,9 7,6 8,2 12 7 17 9 SE 1025,5 2,9 0 1,2
18.02.2018 06:00:00 4,0 3,7 3,5 7,6 8,2 10 6 15 8 E 1025,9 2,2 0 0,8
18.02.2018 05:00:00 3,4 3,1 2,8 7,6 8,2 4 2 6 4 E 1026,2 2,9 0 0,0
18.02.2018 04:00:00 2,9 2,6 1,1 7,6 8,2 4 2 7 4 SE 1026,5 2,7 0 0,0
18.02.2018 03:00:00 1,2 0,9 -0,5 7,6 8,2 3 2 6 3 SE 1026,9 0,3 0 0,0
18.02.2018 02:00:00 0,3 -0,1 -1,6 7,6 8,1 3 2 6 3 SE 1027,4 0,1 0 0,0
18.02.2018 01:00:00 -0,1 -0,8 -1,9 7,5 8,1 4 2 7 4 ESE 1027,6 0,1 0 0,0
18.02.2018 00:00:00 1,1 0,1 -1,9 7,5 8,1 3 1 5 3 ENE 1027,8 0,2 0 0,0
17.02.2018 23:00:00 3,3 2,6 -1,5 7,5 8,2 4 2 7 4 S 1027,4 4,2 0 0,0
17.02.2018 22:00:00 4,3 3,1 1,5 7,5 8,1 5 3 11 6 SW 1027,2 10 0 0,0
17.02.2018 21:00:00 5,6 3,8 2,7 7,5 8,1 6 4 14 8 W 1026,8 18 0 0,0
17.02.2018 20:00:00 6,8 3,4 0,9 7,5 8,1 6 4 11 6 WSW 1026,6 20 0 0,0
17.02.2018 19:00:00 7,1 3,2 2,6 7,5 8,1 5 3 11 6 WNW 1026,2 20 6 0,0
17.02.2018 18:00:00 9,3 3,3 8,7 7,5 8,1 8 4 22 12 WNW 1025,4 20 53 0,0
17.02.2018 17:00:00 10,4 3,0 10,3 7,4 8,1 11 6 26 14 NNW 1025,1 20 56 0,0
17.02.2018 16:00:00 10,6 4,1 9,2 7,5 8,1 12 6 26 14 N 1025,0 20 31 0,0
17.02.2018 15:00:00 9,4 4,2 9,2 7,4 8,1 13 7 27 15 NNW 1024,7 20 7 0,0
17.02.2018 14:00:00 8,9 4,7 9,0 7,4 8,1 15 8 36 19 NNW 1024,4 20 17 0,0
17.02.2018 13:00:00 8,6 4,6 9,1 7,4 8,1 16 9 34 18 NNW 1023,9 20 16 0,0
17.02.2018 12:00:00 8,3 5,4 8,3 7,4 8,1 22 12 41 22 N 1023,0 20 14 0,0
17.02.2018 11:00:00 8,5 7,3 7,8 7,4 8,1 12 6 19 10 NNW 1021,4 20 11 0,0
17.02.2018 10:00:00 7,8 6,9 7,0 7,4 8,1 4 2 16 9 ENE 1019,6 19 0 0,2
17.02.2018 09:00:00 7,2 6,6 5,7 7,3 8,1 9 5 15 8 S 1019,2 5 0 0,2
17.02.2018 08:00:00 6,1 5,5 4,4 7,3 8,1 8 4 12 7 SSW 1019,4 19 0 0,0
17.02.2018 07:00:00 7,1 6,2 6,3 7,3 8,1 7 4 18 10 SW 1019,2 20 0 0,2
17.02.2018 06:00:00 7,6 7,0 7,2 7,2 8,1 12 6 38 20 W 1019,2 13 0 1,4
17.02.2018 05:00:00 7,5 6,9 6,8 7,2 8,0 20 11 44 24 WSW 1019,0 3,1 0 2,9
17.02.2018 04:00:00 7,2 6,5 6,8 7,2 8,1 0 0 5 3 N 1018,0 8 0 0,6
17.02.2018 03:00:00 7,4 6,7 6,8 7,2 8,0 0 0 12 6 N 1018,5 11 0 0,4
17.02.2018 02:00:00 7,5 6,8 7,1 7,2 8,1 10 5 13 7 NE 1018,3 13 0 0,8
17.02.2018 01:00:00 7,6 6,7 7,1 7,2 8,1 10 5 15 8 NE 1018,6 10 0 0,4
17.02.2018 00:00:00 7,6 6,5 7,1 7,1 8,0 10 5 22 12 NE 1019,0 11 0 0,4
16.02.2018 23:00:00 7,6 6,4 7,1 7,1 8,1 13 7 20 11 NE 1019,1 16 0 0,8
16.02.2018 22:00:00 8,0 6,5 7,3 7,1 8,0 11 6 20 11 NE 1019,8 10 0 0,8
16.02.2018 21:00:00 8,4 6,2 7,5 7,1 8,0 13 7 21 11 NE 1020,3 16 0 0,2
16.02.2018 20:00:00 9,2 5,7 8,6 7,0 8,0 14 8 26 14 NE 1020,8 20 0 0,0
16.02.2018 19:00:00 9,4 5,9 8,8 7,0 8,0 13 7 26 14 NE 1021,2 20 0 0,0
16.02.2018 18:00:00 9,8 6,0 9,3 7,0 8,0 18 10 27 15 ENE 1021,2 20 0 0,0
16.02.2018 17:00:00 10,3 6,3 10,3 7,0 8,0 21 11 29 16 ENE 1021,7 20 0 0,0
16.02.2018 16:00:00 10,5 6,4 10,8 7,0 8,0 18 10 30 16 ENE 1022,5 20 0 0,0
16.02.2018 15:00:00 11,1 6,8 12,2 7,0 8,0 19 11 29 16 ENE 1022,8 20 6 0,0
16.02.2018 14:00:00 11,3 6,6 12,5 6,9 8,0 20 11 31 17 ENE 1024,1 20 19 0,0
16.02.2018 13:00:00 10,7 6,3 12,2 6,9 8,0 20 11 34 18 ENE 1024,8 20 30 0,0
16.02.2018 12:00:00 9,9 6,2 10,5 6,9 8,0 17 9 36 19 ENE 1025,4 20 0 0,0
16.02.2018 11:00:00 9,3 5,7 9,1 6,9 8,0 22 12 37 20 ENE 1025,7 20 3 0,0
16.02.2018 10:00:00 8,6 5,7 7,9 6,9 8,0 22 12 34 18 ENE 1025,5 20 0 0,0
16.02.2018 09:00:00 8,1 5,9 7,4 6,8 8,1 16 9 25 14 NE 1025,4 20 0 0,0
16.02.2018 08:00:00 7,9 5,9 7,3 6,8 8,0 17 9 27 15 ENE 1025,1 20 0 0,0
16.02.2018 07:00:00 7,9 5,9 7,4 6,8 8,0 15 8 29 15 NE 1025,2 20 0 0,0
16.02.2018 06:00:00 8,0 6,3 7,4 6,7 8,0 14 8 22 12 NE 1025,1 20 0 0,0
16.02.2018 05:00:00 8,0 6,3 7,3 6,7 8,0 10 6 18 10 NE 1024,6 20 0 0,0
16.02.2018 04:00:00 8,2 6,7 7,6 6,7 8,0 10 5 15 8 NE 1024,5 20 0 0,0
16.02.2018 03:00:00 8,3 6,9 7,6 6,7 8,1 7 4 16 8 NE 1024,3 20 0 0,0
16.02.2018 02:00:00 8,4 7,8 6,8 6,6 8,0 4 2 7 4 NNE 1023,8 0,3 0 0,0
16.02.2018 01:00:00 9,1 8,5 7,3 6,6 8,0 2 1 5 3 WSW 1023,8 3,4 0 0,0
16.02.2018 00:00:00 9,4 8,8 8,2 6,5 8,0 3 2 8 4 NNW 1023,4 6 0 0,0
15.02.2018 23:00:00 9,5 8,7 8,6 6,5 8,0 5 3 10 6 NW 1022,7 9 0 0,0
15.02.2018 22:00:00 10,0 9,1 9,3 6,5 8,1 8 4 16 9 W 1022,6 16 0 0,2
15.02.2018 21:00:00 10,3 9,1 9,6 6,4 8,1 9 5 16 9 W 1022,1 17 0 0,0
15.02.2018 20:00:00 10,7 9,3 10,0 6,4 8,1 13 7 19 10 W 1021,7 20 0 0,0
15.02.2018 19:00:00 11,4 9,6 10,9 6,4 8,1 12 6 19 11 W 1020,7 20 0 0,0
15.02.2018 18:00:00 11,8 10,2 11,6 6,4 8,1 13 7 22 12 W 1019,8 20 0 0,0
15.02.2018 17:00:00 12,3 10,7 12,2 6,4 8,1 13 7 24 13 SW 1019,3 20 0 0,0
15.02.2018 16:00:00 12,5 11,2 12,7 6,3 8,1 18 10 35 19 WSW 1018,9 10 0 0,0

tt = Température de l'air
td = dewpoint
tt 5cm = Température de l'air 5cm
tt -20cm = Température de l'air -20cm
tt -100cm = Température de l'air -100cm
ff = Vitesse du vent
fx = gusts
dd = Direction du vent
ppp = reduced air pressure
vv = visibility
sd = Ensoleillement
rr = Quantités de précipitations

stations d'obs. à proximité